Wind_Speed
9 10 11 12 13 13 13 12 11 11 10 9 8 8 8 8 7 7 6 7 7 7 7 7 8 8 9 9 9 10 10 11 11 11 10 11 11 12 11 11 12 12 12
11 11 12 12 13 14 14 13 13 12 12 10 10 10 9 9 9 9 9 8 8 7 7 7 7 8 8 9 9 10 10 11 11 11 10 10 10 10 10 10 9 10 11
12 13 13 14 14 14 15 14 14 13 13 12 12 11 11 11 11 10 10 10 9 9 8 7 6 7 7 8 8 9 10 11 11 12 11 10 10 9 10 9 8 8 8
14 15 16 17 17 18 17 15 14 14 13 13 14 14 13 13 13 12 12 11 11 10 10 9 8 7 7 8 8 9 10 11 12 12 12 12 10 10 9 8 8 7 7
16 17 19 20 21 20 19 17 15 14 14 14 14 16 16 15 14 13 13 12 12 12 12 11 10 9 8 9 9 9 10 11 12 12 12 12 12 11 10 10 9 7 6
17 18 20 21 22 21 19 17 16 15 15 15 14 15 17 17 16 15 15 13 13 13 13 12 11 10 10 10 10 10 11 11 11 12 12 12 12 12 12 12 11 9 8
21 22 23 23 23 22 20 19 18 17 17 17 17 17 16 18 15 13 10 12 13 13 13 13 13 12 12 12 12 12 13 13 13 12 13 13 13 13 13 13 13 11 10
21 20 20 21 22 22 22 22 21 20 19 18 17 16 14 16 14 15 14 14 14 14 15 15 15 15 14 14 15 16 16 16 16 15 15 15 15 14 14 14 14 14 13
21 22 21 20 20 21 21 21 21 19 19 17 16 16 16 18 18 17 16 16 17 17 17 17 18 17 17 17 18 18 19 19 19 19 18 18 17 17 17 16 15 15 15
22 20 18 16 16 17 17 17 17 14 13 12 13 14 17 18 19 19 19 19 19 19 19 20 20 21 21 21 21 22 22 22 22 22 22 21 20 19 19 19 18 18 18
16 15 15 15 15 14 14 13 13 14 15 16 16 16 18 19 20 20 20 21 22 22 22 22 23 23 24 25 24 25 25 26 26 25 24 24 24 22 21 21 21 21 22
18 17 16 16 16 15 15 15 13 14 16 17 16 17 17 18 19 19 20 21 22 23 24 24 25 25 26 27 27 27 26 27 27 27 26 26 26 25 25 24 24 24 24
22 21 20 19 18 16 15 16 17 19 19 17 16 17 18 19 18 19 19 21 21 23 23 24 25 26 27 28 28 28 28 28 28 28 27 27 27 27 27 27 26 26 26
23 22 20 20 19 19 19 18 19 19 22 22 21 20 20 19 19 19 21 23 23 24 26 27 28 29 29 30 30 29 29 30 29 29 29 29 29 29 29 29 28 28 28
26 24 24 23 21 20 20 21 23 24 22 24 24 22 21 21 22 23 23 24 25 27 27 29 30 32 31 32 32 31 31 31 31 31 31 30 31 31 30 30 30 30 30
29 27 27 27 25 25 25 27 27 29 26 23 22 21 22 23 24 26 26 26 27 29 29 30 31 31 32 32 32 31 32 32 32 31 32 32 31 32 31 31 31 31 31
31 29 28 30 29 29 31 28 27 31 27 27 25 25 25 24 26 28 28 29 29 30 31 31 32 32 33 33 33 33 33 33 34 34 34 33 33 33 32 33 32 31 31
33 33 31 34 33 32 26 23 28 31 29 29 26 26 28 26 29 31 30 30 31 33 34 34 34 35 36 36 36 37 37 37 37 37 36 37 37 36 36 36 36 35 34
33 32 32 33 36 26 26 23 29 30 24 26 29 26 27 29 31 34 34 35 35 36 37 37 37 38 39 38 39 39 39 40 40 41 40 40 41 41 40 39 40 39 39
35 35 35 34 21 24 27 25 26 23 22 26 29 29 32 35 36 37 37 37 38 37 38 38 39 39 40 40 41 42 42 42 41 41 40 39 39 38 38 39 38 38 38
37 40 45 19 18 23 26 24 25 23 24 26 29 32 35 36 38 41 39 39 39 40 40 41 41 42 42 42 41 39 38 40 40 40 42 43 42 43 45 45 44 43 42
42 28 31 25 21 24 25 27 27 28 30 32 32 33 35 38 41 40 40 40 40 41 42 43 43 42 41 39 39 42 44 46 48 47 48 51 52 52 53 52 52 51 51
36 34 35 27 21 25 28 29 31 34 33 33 34 35 36 38 39 40 40 41 42 44 43 41 40 40 43 46 47 50 52 53 55 57 59 58 59 60 61 61 61 61 61
38 36 31 26 25 31 33 35 35 34 33 35 35 36 37 39 39 41 43 44 44 44 41 42 45 47 50 53 56 57 58 61 63 63 65 66 68 68 68 66 68 69 70
41 36 35 30 32 35 37 36 36 35 35 35 36 37 38 40 41 44 45 46 44 42 46 49 53 56 59 61 64 67 68 70 71 72 72 73 74 75 75 75 74 74 76
31 32 34 34 36 38 37 36 36 35 36 36 37 39 40 42 45 47 46 44 46 50 54 58 61 65 68 70 71 73 75 76 77 78 79 79 80 80 80 80 81 82 83
Wind_Direction
296 304 311 317 320 320 315 320 317 312 298 278 275 274 274 271 269 269 268 284 298 312 328 339 350 357 1 7 5 5 6 4 0 358 1 4 7 13 13 14 11 14 18
285 289 296 304 310 313 313 307 319 312 308 281 272 269 267 269 268 266 268 272 281 294 307 320 336 346 352 360 358 359 357 359 355 354 353 352 356 360 4 5 8 5 8
277 282 288 293 297 302 304 306 310 313 306 299 276 269 268 267 267 264 263 266 273 281 288 297 307 321 336 343 349 349 348 351 348 351 348 344 343 347 351 350 351 3 356
278 283 287 290 292 295 297 299 301 305 304 299 287 274 268 268 265 263 263 264 267 270 275 279 287 299 315 326 337 336 340 343 346 346 342 336 333 331 334 335 329 335 349
282 285 288 290 290 290 294 296 297 300 301 300 297 282 273 270 270 268 263 264 266 267 269 274 281 291 303 310 319 323 328 333 336 336 335 330 327 322 317 316 316 315 316
282 284 286 287 287 287 287 289 293 295 297 297 291 287 276 271 272 275 271 265 264 264 268 272 277 281 289 295 300 308 313 317 321 321 322 322 316 312 310 308 306 302 299
283 286 286 282 280 281 283 283 285 288 290 290 290 288 280 272 275 274 270 258 263 265 267 270 273 276 280 286 291 294 299 302 304 307 307 308 306 304 300 298 298 297 291
283 285 288 287 282 279 278 281 282 284 285 285 284 284 280 283 266 264 263 259 262 263 263 264 265 268 273 277 283 287 291 294 296 297 295 295 293 292 292 293 293 291 287
279 284 289 292 285 279 280 280 281 280 278 276 277 279 276 277 273 270 266 264 262 264 265 265 266 269 271 273 276 281 285 287 288 289 287 286 285 285 285 282 281 280 279
283 281 284 289 290 287 283 282 283 280 279 280 285 282 281 279 277 275 273 272 270 269 269 270 270 271 273 275 277 279 280 281 282 282 282 280 277 276 276 278 277 275 273
279 285 293 293 293 290 285 279 278 270 271 276 286 281 277 274 273 273 272 272 272 271 271 273 275 276 276 276 275 276 278 279 280 279 279 280 279 276 273 272 272 272 273
277 283 289 291 286 282 285 283 277 265 267 274 277 276 276 276 277 276 277 277 278 277 275 275 275 276 276 276 276 276 276 277 278 279 278 277 277 276 274 271 269 269 268
273 277 282 280 278 277 281 281 280 269 268 267 276 276 277 276 276 278 280 279 278 279 279 280 279 278 278 277 277 276 276 275 275 275 275 274 274 273 272 271 269 268 268
267 271 274 277 276 277 279 279 284 282 274 270 275 283 278 276 281 285 286 286 286 285 285 284 284 282 280 278 277 275 275 274 273 273 273 272 271 270 270 269 268 267 265
263 268 270 271 274 276 283 288 287 284 279 272 265 273 275 276 280 288 288 288 288 288 287 287 286 283 282 280 280 279 278 277 276 275 275 274 273 271 270 269 269 266 264
260 264 265 271 274 275 279 284 280 283 282 269 265 265 278 274 281 288 290 291 291 290 289 286 286 284 283 282 281 280 279 279 278 278 277 276 275 274 273 271 270 268 266
260 260 265 273 279 287 283 280 280 285 280 267 267 268 276 274 284 289 290 291 291 290 290 288 287 286 285 283 281 280 279 278 276 275 274 272 272 271 270 270 269 267 267
254 260 267 277 280 282 288 285 282 279 291 267 268 275 278 277 288 291 291 292 293 293 292 290 289 288 286 283 281 278 276 274 273 273 272 270 269 267 268 267 268 268 266
255 262 263 270 274 271 279 278 277 287 279 281 270 270 278 282 293 296 295 295 294 291 290 290 288 285 282 280 279 277 275 274 272 271 269 269 269 268 268 267 267 266 264
261 267 269 253 290 279 276 281 287 291 282 282 289 295 285 283 289 297 295 294 293 293 292 289 286 284 283 281 279 277 276 274 272 271 269 269 268 269 269 269 268 267 268
269 272 258 285 275 273 279 283 285 290 290 283 281 279 283 285 293 295 294 295 294 292 290 288 287 286 285 282 280 278 278 278 274 274 274 273 272 270 271 269 268 267 266
276 283 287 292 268 271 281 284 286 286 286 285 286 287 285 287 291 294 294 293 291 290 289 288 286 285 282 279 280 281 281 282 281 279 278 279 278 277 275 272 270 267 265
271 273 277 279 274 279 282 282 284 286 285 286 288 289 291 292 293 294 292 290 290 290 288 287 285 284 284 284 283 285 285 284 283 283 282 279 277 276 275 276 274 272 269
263 269 270 283 276 279 282 284 286 285 288 289 291 293 294 294 293 292 291 292 291 289 286 285 287 287 287 287 287 286 285 285 284 282 281 280 280 278 277 273 272 272 271
259 264 269 278 276 281 284 282 284 288 292 293 295 295 294 293 293 293 293 291 288 287 288 288 288 288 288 288 288 287 286 285 282 281 279 279 277 277 276 275 272 270 269
263 270 272 272 276 277 278 282 287 291 291 294 295 294 293 293 293 292 291 290 291 290 291 291 291 291 290 289 288 288 288 287 286 285 284 282 280 277 275 274 273 271 269
Height
5888 5887 5886 5885 5885 5884 5883 5882 5881 5880 5879 5878 5878 5878 5878 5878 5878 5878 5877 5877 5876 5876 5875 5874 5874 5874 5873 5872 5871 5869 5868 5867 5867 5865 5864 5862 5861 5860 5859 5859 5858 5857 5856
5886 5885 5884 5884 5883 5883 5882 5881 5880 5879 5879 5877 5877 5877 5876 5877 5877 5877 5876 5876 5875 5874 5874 5873 5873 5873 5872 5871 5870 5869 5868 5866 5866 5865 5864 5863 5862 5861 5860 5859 5859 5858 5856
5884 5883 5883 5882 5882 5881 5880 5879 5878 5878 5877 5876 5876 5875 5875 5875 5875 5875 5874 5874 5873 5873 5872 5872 5871 5871 5871 5870 5869 5868 5867 5866 5866 5865 5864 5863 5862 5861 5861 5860 5859 5859 5858
5882 5881 5881 5880 5880 5879 5878 5877 5876 5875 5875 5874 5873 5873 5872 5872 5873 5873 5872 5872 5871 5871 5870 5870 5869 5869 5869 5869 5868 5867 5867 5866 5865 5864 5863 5863 5862 5861 5860 5860 5860 5859 5858
5880 5880 5879 5878 5877 5876 5876 5874 5873 5873 5872 5871 5871 5871 5870 5870 5870 5870 5870 5870 5869 5868 5868 5868 5868 5867 5867 5867 5866 5866 5865 5865 5864 5863 5863 5862 5861 5861 5860 5860 5859 5859 5858
5877 5877 5876 5875 5874 5873 5872 5872 5871 5870 5869 5868 5867 5867 5867 5867 5867 5868 5868 5867 5867 5866 5866 5866 5866 5865 5864 5864 5864 5864 5863 5863 5862 5862 5861 5860 5860 5859 5859 5859 5859 5858 5858
5874 5873 5873 5872 5871 5870 5869 5868 5868 5867 5866 5865 5864 5864 5864 5863 5865 5865 5865 5865 5865 5864 5864 5863 5863 5863 5862 5862 5861 5861 5861 5861 5860 5860 5859 5859 5859 5858 5858 5857 5858 5857 5858
5870 5870 5868 5867 5866 5865 5865 5865 5864 5863 5862 5862 5861 5861 5860 5860 5861 5861 5862 5862 5862 5862 5861 5860 5860 5860 5859 5859 5858 5858 5858 5858 5858 5857 5857 5857 5857 5856 5856 5856 5855 5856 5856
5866 5866 5865 5863 5862 5862 5861 5861 5860 5860 5859 5858 5858 5858 5857 5858 5858 5858 5858 5859 5858 5858 5858 5858 5857 5856 5856 5856 5855 5854 5854 5855 5854 5854 5854 5854 5854 5853 5853 5853 5853 5853 5853
5862 5862 5861 5860 5859 5858 5858 5857 5857 5857 5856 5856 5856 5855 5855 5854 5855 5855 5855 5855 5855 5855 5854 5854 5853 5853 5853 5852 5851 5851 5850 5850 5850 5850 5850 5850 5850 5850 5850 5850 5850 5849 5850
5859 5859 5857 5857 5857 5856 5855 5854 5854 5854 5854 5854 5853 5853 5852 5852 5852 5851 5851 5851 5851 5851 5850 5850 5850 5849 5849 5848 5847 5846 5846 5846 5845 5845 5845 5846 5846 5846 5845 5846 5846 5846 5846
5855 5855 5855 5854 5854 5853 5852 5852 5851 5851 5850 5850 5849 5849 5848 5848 5848 5848 5848 5847 5847 5847 5846 5845 5845 5844 5844 5843 5843 5842 5841 5841 5840 5840 5840 5840 5841 5840 5841 5841 5841 5842 5842
5851 5851 5851 5851 5851 5850 5849 5849 5848 5847 5847 5846 5846 5845 5845 5844 5844 5843 5843 5843 5843 5842 5842 5841 5840 5840 5839 5838 5837 5837 5836 5836 5835 5835 5835 5834 5834 5835 5835 5835 5836 5837 5837
5846 5847 5847 5847 5847 5846 5845 5844 5843 5843 5843 5842 5842 5842 5841 5840 5840 5839 5839 5839 5838 5837 5837 5836 5835 5834 5833 5832 5831 5830 5830 5830 5829 5829 5829 5829 5829 5828 5829 5829 5829 5830 5831
5841 5842 5843 5843 5842 5842 5840 5840 5839 5838 5838 5837 5837 5837 5837 5836 5835 5835 5834 5833 5833 5832 5831 5831 5830 5829 5827 5826 5826 5825 5824 5824 5823 5823 5823 5822 5822 5822 5822 5822 5822 5823 5824
5836 5837 5838 5838 5838 5838 5837 5835 5834 5833 5833 5831 5832 5832 5831 5831 5831 5830 5829 5828 5828 5827 5826 5825 5824 5823 5822 5821 5819 5818 5818 5817 5817 5816 5816 5815 5815 5815 5815 5815 5816 5816 5816
5833 5832 5832 5833 5833 5832 5831 5831 5828 5827 5827 5826 5826 5826 5826 5826 5826 5825 5824 5823 5821 5821 5819 5818 5817 5816 5815 5814 5813 5812 5810 5809 5808 5808 5808 5808 5808 5807 5807 5807 5807 5808 5809
5826 5827 5829 5829 5829 5827 5826 5824 5823 5822 5821 5820 5820 5820 5820 5820 5820 5820 5818 5817 5816 5814 5813 5812 5810 5809 5808 5807 5805 5804 5803 5801 5800 5800 5799 5799 5798 5799 5798 5798 5799 5799 5800
5818 5821 5822 5823 5822 5823 5820 5820 5818 5816 5816 5815 5814 5814 5814 5814 5814 5813 5812 5811 5809 5808 5806 5805 5803 5801 5800 5798 5797 5796 5794 5793 5792 5791 5790 5789 5789 5789 5789 5789 5789 5789 5790
5812 5816 5818 5816 5818 5817 5815 5813 5812 5811 5810 5810 5808 5809 5809 5808 5808 5806 5805 5803 5802 5800 5799 5796 5795 5793 5791 5789 5787 5786 5784 5784 5783 5781 5781 5780 5780 5780 5780 5780 5780 5781 5780
5807 5810 5813 5812 5812 5810 5808 5807 5808 5807 5806 5805 5804 5804 5802 5802 5800 5799 5797 5795 5793 5792 5790 5787 5785 5783 5781 5779 5777 5776 5775 5774 5772 5773 5771 5770 5771 5771 5770 5769 5770 5770 5771
5802 5802 5805 5805 5806 5804 5801 5801 5802 5801 5800 5799 5798 5797 5796 5794 5793 5791 5789 5787 5784 5782 5780 5778 5775 5773 5771 5769 5768 5767 5766 5764 5761 5762 5761 5759 5757 5756 5755 5756 5756 5756 5757
5796 5799 5800 5799 5800 5796 5797 5796 5794 5794 5793 5792 5791 5790 5788 5786 5784 5782 5780 5777 5775 5773 5770 5768 5765 5763 5761 5759 5759 5756 5754 5752 5750 5748 5745 5744 5743 5742 5741 5740 5739 5740 5740
5789 5791 5792 5792 5792 5790 5790 5789 5787 5786 5785 5785 5784 5781 5779 5777 5775 5772 5770 5767 5765 5762 5759 5758 5756 5754 5751 5749 5744 5742 5740 5737 5733 5734 5731 5728 5725 5723 5722 5724 5723 5722 5721
5783 5784 5784 5786 5785 5784 5781 5781 5780 5779 5778 5776 5775 5772 5770 5768 5765 5762 5760 5757 5754 5751 5750 5747 5744 5741 5738 5734 5729 5724 5722 5718 5715 5712 5712 5708 5706 5703 5702 5700 5700 5700 5699
5775 5778 5778 5778 5779 5777 5776 5774 5772 5771 5770 5768 5765 5763 5760 5758 5755 5752 5748 5745 5743 5740 5737 5733 5729 5724 5720 5715 5711 5705 5701 5697 5692 5688 5686 5685 5682 5682 5679 5678 5675 5674 5672